Weather History for Bishop, CA

Change the Weather History Date:

Friday, March 1, 2013

  Actual Average Record
Temperature  
Mean Temperature 49 °F 45 °F  
Max Temperature 71 °F 62 °F 78 °F (1986)
Min Temperature 26 °F 29 °F 9 °F (1969)
Degree Days  
Heating Degree Days 16 20  
Month to date heating degree days 16 20  
Since 1 July heating degree days 3223 3227  
Cooling Degree Days 0 0  
Month to date cooling degree days 0 0  
Year to date cooling degree days 0 0  
Moisture  
Dew Point 17 °F    
Average Humidity 38    
Maximum Humidity 63    
Minimum Humidity 12    
Precipitation  
Precipitation 0.00 in 0.02 in 1.49 in (1974)
Month to date precipitation 0.00 0.02  
Year to date precipitation T 1.92  
Snow  
Snow 0.00 in 0.00 in T in (2003)
Month to date snowfall 0.0 0.0  
Since 1 July snowfall 2.8 5.9  
Snow Depth 0.00 in    
Sea Level Pressure  
Sea Level Pressure 30.38 in    
Wind  
Wind Speed 6 mph (WNW)    
Max Wind Speed 13 mph    
Max Gust Speed 18 mph    
Visibility 10 miles    
Events      
T = Trace of Precipitation, MM = Missing Value Source: NWS Daily Summary

Daily Weather History Graph

Daily Weather History Graph

Search for Another Location

Airport:

Trip Planner

Search our weather history database for the weather conditions in past years. The results will help you decide how hot, cold, wet, or windy it might be!

Date:

Astronomy

Mar. 01, 2013 Rise Set
Actual Time 6:24 AM PST 5:47 PM PST
Civil Twilight 5:57 AM PST 6:13 PM PST
Nautical Twilight 5:27 AM PST 6:44 PM PST
Astronomical Twilight 4:57 AM PST 7:14 PM PST
Moon 10:19 PM PST (3/1) 8:20 AM PST (3/1)
Length of Visible Light 12h 15m
Length of Day
11h 23m
Waning Gibbous, 82% of the Moon is Illuminated
Mar 1
Waning Gibbous
Mar 4
Last Quarter
Mar 11
New
Mar 19
First Quarter
Mar 27
Full

Hourly Weather History & Observations

Time (PST) Temp. Windchill Dew Point Humidity Pressure Visibility Wind Dir Wind Speed Gust Speed Precip Events Conditions
12:56 AM 28.9 °F 23.9 °F 10.0 °F 45% 30.46 in 10.0 mi North 4.6 mph - N/A   Clear
1:56 AM 28.9 °F 23.9 °F 12.9 °F 51% 30.46 in 10.0 mi NNW 4.6 mph - N/A   Clear
2:56 AM 30.0 °F 24.1 °F 15.1 °F 54% 30.44 in 10.0 mi NW 5.8 mph - N/A   Clear
3:56 AM 32.0 °F 28.7 °F 17.1 °F 54% 30.44 in 10.0 mi Variable 3.5 mph - N/A   Clear
4:56 AM 28.0 °F 22.8 °F 16.0 °F 61% 30.46 in 10.0 mi North 4.6 mph - N/A   Clear
5:56 AM 28.9 °F 20.4 °F 17.1 °F 61% 30.48 in 10.0 mi NW 9.2 mph - N/A   Clear
6:56 AM 28.0 °F 22.8 °F 17.1 °F 63% 30.51 in 10.0 mi NNW 4.6 mph - N/A   Clear
7:56 AM 42.1 °F - 21.0 °F 43% 30.48 in 10.0 mi Calm Calm - N/A   Clear
8:56 AM 51.1 °F - 21.9 °F 32% 30.47 in 10.0 mi North 5.8 mph - N/A   Clear
9:56 AM 57.0 °F - 21.0 °F 25% 30.44 in 10.0 mi West 3.5 mph - N/A   Clear
10:56 AM 63.0 °F - 21.9 °F 21% 30.41 in 10.0 mi NNE 4.6 mph - N/A   Clear
11:56 AM 64.0 °F - 21.9 °F 20% 30.39 in 10.0 mi Calm Calm - N/A   Clear
12:56 PM 66.9 °F - 19.9 °F 17% 30.35 in 10.0 mi Calm Calm - N/A   Clear
1:56 PM 70.0 °F - 19.0 °F 14% 30.31 in 10.0 mi NNW 4.6 mph - N/A   Clear
2:56 PM 70.0 °F - 17.1 °F 13% 30.28 in 10.0 mi South 6.9 mph - N/A   Clear
3:56 PM 71.1 °F - 16.0 °F 12% 30.26 in 10.0 mi South 8.1 mph - N/A   Clear
4:56 PM 69.1 °F - 17.1 °F 14% 30.26 in 10.0 mi South 10.4 mph - N/A   Clear
5:56 PM 64.0 °F - 17.1 °F 16% 30.28 in 10.0 mi SSE 11.5 mph - N/A   Clear
6:56 PM 60.1 °F - 18.0 °F 20% 30.30 in 10.0 mi South 11.5 mph - N/A   Clear
7:56 PM 53.1 °F - 17.1 °F 24% 30.30 in 10.0 mi South 10.4 mph - N/A   Clear
8:56 PM 52.0 °F - 18.0 °F 26% 30.30 in 10.0 mi South 9.2 mph - N/A   Clear
9:56 PM 42.1 °F 39.2 °F 14.0 °F 32% 30.33 in 10.0 mi Variable 4.6 mph - N/A   Clear
10:56 PM 37.9 °F 32.7 °F 14.0 °F 38% 30.35 in 10.0 mi NNW 6.9 mph - N/A   Clear
11:56 PM 35.1 °F 31.0 °F 14.0 °F 42% 30.35 in 10.0 mi NW 4.6 mph - N/A   Clear